Beaufort MCAS, SC

12:04 PM EDT on May 24, 2017 (GMT -0400)
Beaufort Marine Corps Air Station

Weather History for KNBC - March, 2012

Change the Weather History Date:

Monday, March 19, 2012

  Actual Average Record
Temperature  
Mean Temperature 69 °F -  
Max Temperature 82 °F 71 °F 90 °F (1963)
Min Temperature 57 °F 48 °F 30 °F (1967)
Cooling Degree Days 4    
Growing Degree Days 19 (Base 50)    
Moisture  
Dew Point 59 °F    
Average Humidity 83    
Maximum Humidity 96    
Minimum Humidity 48    
Precipitation  
Precipitation 0.00 in - - ()
Sea Level Pressure  
Sea Level Pressure 30.19 in    
Wind  
Wind Speed 1 mph (South)    
Max Wind Speed 10 mph    
Max Gust Speed -    
Visibility 6 miles    
Events Fog    
Averages and records for this station are not official NWS values.
T = Trace of Precipitation, MM = Missing Value Source: NWS Daily Summary

Daily Weather History Graph

Daily Weather History Graph

Search for Another Location

Airport or City:

Trip Planner

Search our weather history database for the weather conditions in past years. The results will help you decide how hot, cold, wet, or windy it might be!

Date:

Astronomy

Mar. 19, 2012 Rise Set
Actual Time 7:27 AM EDT 7:34 PM EDT
Civil Twilight 7:02 AM EDT 7:58 PM EDT
Nautical Twilight 6:34 AM EDT 8:27 PM EDT
Astronomical Twilight 6:05 AM EDT 8:56 PM EDT
Moon 5:30 AM EDT (3/19) 5:07 PM EDT (3/19)
Length of Visible Light 12h 55m
Length of Day
12h 06m
Waning Crescent, 8% of the Moon is Illuminated
Mar 19
Waning Crescent
Mar 22
New
Mar 30
First Quarter
Apr 6
Full
Apr 13
Last Quarter

Hourly Weather History & Observations

Time (EDT) Temp. Heat Index Dew Point Humidity Pressure Visibility Wind Dir Wind Speed Gust Speed Precip Events Conditions
12:53 AM 62.6 °F - 59.0 °F 88% 30.20 in 1.5 mi Calm Calm - N/A   Clear
12:56 AM 62.1 °F - 59.0 °F 90% 30.20 in 1.0 mi Calm Calm - N/A   Clear
1:05 AM 60.8 °F - 59.0 °F 94% 30.20 in 0.8 mi Calm Calm - N/A   Clear
1:12 AM 60.8 °F - 59.0 °F 94% 30.20 in 1.2 mi Calm Calm - N/A   Clear
1:15 AM 60.8 °F - 59.0 °F 94% 30.19 in 4.0 mi Calm Calm - N/A   Clear
1:56 AM 60.1 °F - 57.9 °F 93% 30.19 in 4.0 mi Calm Calm - N/A   Partly Cloudy
1:58 AM 60.8 °F - 57.2 °F 88% 30.19 in 1.2 mi Calm Calm - N/A   Scattered Clouds
2:03 AM 60.8 °F - 57.2 °F 88% 30.19 in 0.5 mi Calm Calm - N/A Fog Fog
2:08 AM 60.8 °F - 57.2 °F 88% 30.19 in 1.0 mi Calm Calm - N/A   Mist
2:10 AM 60.8 °F - 57.2 °F 88% 30.19 in 2.0 mi Calm Calm - N/A   Scattered Clouds
2:17 AM 60.8 °F - 57.2 °F 88% 30.19 in 10.0 mi Calm Calm - N/A   Partly Cloudy
2:47 AM 57.2 °F - 55.4 °F 94% 30.19 in 1.0 mi Calm Calm - N/A   Mist
2:49 AM 59.0 °F - 55.4 °F 88% 30.19 in 0.5 mi Calm Calm - N/A Fog Fog
2:56 AM 59.0 °F - 57.0 °F 93% 30.19 in 0.2 mi Calm Calm - N/A Fog Fog
3:06 AM 59.0 °F - 57.2 °F 94% 30.18 in 0.2 mi Calm Calm - N/A Fog Fog
3:21 AM 59.0 °F - 57.2 °F 94% 30.18 in 0.8 mi Calm Calm - N/A   Mist
3:23 AM 59.0 °F - 57.2 °F 94% 30.18 in 1.2 mi Calm Calm - N/A   Mostly Cloudy
3:25 AM 59.0 °F - 57.2 °F 94% 30.18 in 2.5 mi Calm Calm - N/A   Mostly Cloudy
3:28 AM 59.0 °F - 57.2 °F 94% 30.18 in 5.0 mi Calm Calm - N/A   Scattered Clouds
3:56 AM 59.0 °F - 57.9 °F 96% 30.18 in 6.0 mi Calm Calm - N/A   Clear
4:41 AM 57.2 °F - 55.4 °F 94% 30.18 in 10.0 mi Calm Calm - N/A   Partly Cloudy
4:56 AM 57.9 °F - 55.9 °F 93% 30.18 in 10.0 mi Calm Calm - N/A   Mostly Cloudy
5:35 AM 59.0 °F - 57.2 °F 94% 30.18 in 1.5 mi Calm Calm - N/A   Overcast
5:45 AM 57.2 °F - 55.4 °F 94% 30.19 in 3.0 mi Calm Calm - N/A   Mostly Cloudy
5:54 AM 57.2 °F - 55.4 °F 94% 30.19 in 10.0 mi Calm Calm - N/A   Scattered Clouds
5:56 AM 57.9 °F - 55.9 °F 93% 30.19 in 9.0 mi Calm Calm - N/A   Partly Cloudy
6:56 AM 57.9 °F - 55.9 °F 93% 30.21 in 3.0 mi Calm Calm - N/A Fog Shallow Fog
7:35 AM 59.0 °F - 55.4 °F 88% 30.21 in 6.0 mi Calm Calm - N/A Fog Shallow Fog
7:56 AM 59.0 °F - 57.0 °F 93% 30.22 in 6.0 mi Calm Calm - N/A Fog Shallow Fog
8:56 AM 66.0 °F - 63.0 °F 90% 30.23 in 6.0 mi Calm Calm - N/A   Scattered Clouds
9:56 AM 69.1 °F - 64.0 °F 84% 30.23 in 10.0 mi Calm Calm - N/A   Scattered Clouds
10:56 AM 73.0 °F - 63.0 °F 71% 30.23 in 10.0 mi Calm Calm - N/A   Scattered Clouds
11:56 AM 75.9 °F - 60.1 °F 58% 30.22 in 10.0 mi SSE 3.5 mph - N/A   Partly Cloudy
12:56 PM 79.0 °F - 59.0 °F 50% 30.21 in 10.0 mi Variable 3.5 mph - N/A   Clear
1:56 PM 80.1 °F 80.7 °F 59.0 °F 48% 30.18 in 10.0 mi Calm Calm - N/A   Scattered Clouds
2:56 PM 81.0 °F 81.9 °F 62.1 °F 52% 30.15 in 10.0 mi ESE 4.6 mph - N/A   Scattered Clouds
3:56 PM 81.0 °F 81.9 °F 62.1 °F 52% 30.14 in 10.0 mi South 9.2 mph - N/A   Clear
4:56 PM 80.1 °F 80.9 °F 60.1 °F 50% 30.13 in 10.0 mi South 9.2 mph - N/A   Clear
5:56 PM 78.1 °F - 60.1 °F 54% 30.14 in 10.0 mi South 10.4 mph - N/A   Partly Cloudy
6:56 PM 72.0 °F - 59.0 °F 64% 30.14 in 10.0 mi South 9.2 mph - N/A   Clear
7:56 PM 70.0 °F - 62.1 °F 76% 30.14 in 10.0 mi South 6.9 mph - N/A   Clear
8:56 PM 69.1 °F - 61.0 °F 75% 30.15 in 10.0 mi South 5.8 mph - N/A   Clear
9:56 PM 68.0 °F - 62.1 °F 81% 30.17 in 10.0 mi South 3.5 mph - N/A   Clear
10:56 PM 66.9 °F - 62.1 °F 84% 30.17 in 10.0 mi South 3.5 mph - N/A   Clear
11:56 PM 66.9 °F - 63.0 °F 87% 30.17 in 10.0 mi Calm Calm - N/A   Clear